Back to catalog

ARIANE 42P+3 DEB

AliveHEO
NORAD 48418·DEBRIS·🇫🇷 France

Launched Apr 20, 1996 from Guiana Space Centre

Loading…

Next Passes (next 24 hours)

TLE

FreshSource: Space-Track

Epoch: Sep 14, 2026, 09:01 UTC

1 48418U 96022C   26257.37603930  .00003011  00000-0  32607-2 0  9992
2 48418   6.1642 216.3015 6232689 250.1366  35.5963  3.60452039148289

Track ARIANE 42P+3 DEB in real time with AllMySat

Download on the App Store